Flag for Canada Weather past 2 weeks in Rankin Inlet, Nunavut Territory, Canada

Now
45 °F

Partly sunny.


Feels Like: 38 °F
Forecast: 37 / 52 °F
Wind: 13 mph from North

Location: Rankin Inlet

Current Time: Aug 23, 2014 at 9:30:38 AM

Latest Report: Aug 23, 2014 at 9:00 AM


Visibility: 15 mi

Pressure: 30.46 "Hg

Humidity: 76%

Dew point: 37 °F

Location of Rankin InletLocation

Historic Weather in Rankin Inlet — Graph

°F

Rankin Inlet temperature yesterday

Maximum temperature yesterday: 52 °F (at 3:00 PM)
Minimum temperature yesterday: 41 °F (at 5:00 AM)
Average temperature yesterday: 46 °F

Past Weeks' High & Low Weather Summary

 TemperatureHumidityPressure
High66 °F (Aug 13, 12:00 PM)100% (Aug 11, 2:00 AM)30.45 "Hg (Aug 11, 2:00 AM)
Low41 °F (Aug 18, 3:00 AM)46% (Aug 13, 1:00 PM)29.29 "Hg (Aug 18, 12:00 AM)
Average48 °F79%29.90 "Hg
* Reported Aug 8 8:00 AM — Aug 23 8:00 AM, Rankin Inlet, Weather by CustomWeather, © 2014

Note: Actual official high and low records may vary slightly from our data, if they occured in-between our weather recording intervals... More about our weather records

Advertising

Rankin Inlet weather history for previous 24 hours

 ConditionsComfort  
Time TempWeatherWind HumidityBarometerVisibility
8:00 AM
Aug 23
45 °FPartly sunny.12 mph81%30.45 "Hg15 mi
7:00 AM45 °FPartly sunny.9 mph81%30.45 "Hg15 mi
6:00 AM43 °FPartly sunny.8 mph87%30.44 "Hg15 mi
5:00 AM45 °FPassing clouds.10 mph81%30.42 "Hg15 mi
4:00 AM45 °FPassing clouds.10 mph81%30.42 "Hg15 mi
3:00 AM45 °FPassing clouds.12 mph81%30.41 "Hg15 mi
2:00 AM45 °FPassing clouds.14 mph81%30.40 "Hg15 mi
1:00 AM45 °FPassing clouds.12 mph76%30.39 "Hg15 mi
12:00 AM45 °FPassing clouds.13 mph76%30.38 "Hg15 mi
11:00 PM
Aug 22
45 °FPassing clouds.12 mph81%30.37 "Hg15 mi
10:00 PM46 °FPassing clouds.13 mph76%30.36 "Hg15 mi
9:00 PM46 °FPassing clouds.16 mph71%30.36 "Hg15 mi
8:00 PM48 °FPartly sunny.18 mph71%30.34 "Hg15 mi
7:00 PM50 °FPartly sunny.20 mph67%30.32 "Hg15 mi
6:00 PM50 °FPartly sunny.16 mph62%30.31 "Hg15 mi
5:00 PM52 °FPartly sunny.17 mph58%30.30 "Hg15 mi
4:00 PM52 °FPartly sunny.17 mph58%30.28 "Hg15 mi
3:00 PM52 °FBroken clouds.20 mph58%30.27 "Hg15 mi
2:00 PM50 °FPartly sunny.23 mph62%30.26 "Hg15 mi
1:00 PM50 °FPartly sunny.21 mph62%30.26 "Hg15 mi
12:00 PM46 °FPartly sunny.21 mph71%30.24 "Hg15 mi
11:00 AM46 °FBroken clouds.22 mph66%30.23 "Hg15 mi
10:00 AM45 °FPartly sunny.23 mph71%30.22 "Hg15 mi
9:00 AM45 °FScattered clouds.20 mph76%30.20 "Hg15 mi
Weather by CustomWeather, © 2014

See weather overviewHow to use our weather pages